This demonstration page uses our WeatherBlox Daily Observations layout. Learn more.

Left ArrowRight Arrow

44.8408, -93.29828

Hourly Observations for April 29, 2017

Temp ( °F °C ) Dew Point ( °F °C ) Humidity (%) Winds ( mph kmh ) Pressure ( in mb ) Visibility ( mi km ) Precip ( " mm )
12:53 am 00:53 Partly Cloudy 44 6.7 25 -3.9 47 47 NNE 17 28 30.16 1022 10 16 0.00 0.00
1:53 am 01:53 Partly Cloudy 43 6.1 27 -2.8 53 53 ENE 9 15 30.19 1022 10 16 0.00 0.00
2:53 am 02:53 Cloudy 42 5.6 27 -2.8 55 55 NE 9 15 30.24 1024 10 16 0.00 0.00
3:53 am 03:53 Cloudy 40 4.4 26 -3.3 58 58 NNE 13 20 30.22 1023 10 16 0.00 0.00
4:53 am 04:53 Cloudy 39 3.9 25 -3.9 57 57 ENE 12 19 30.20 1023 10 16 0.00 0.00
5:53 am 05:53 Mostly Cloudy 39 3.9 26 -3.3 60 60 E 10 17 30.25 1024 10 16 0.00 0.00
6:33 am 06:33 Mostly Cloudy 38 3.3 26 -3.3 62 62 ESE 10 17 30.33 1027 10 16 0.00 0.00
6:53 am 06:53 Mostly Cloudy 39 3.9 26 -3.3 60 60 E 12 19 30.29 1026 10 16 0.00 0.00
7:53 am 07:53 Mostly Cloudy 40 4.4 25 -3.9 55 55 E 13 20 30.32 1027 10 16 0.00 0.00
8:53 am 08:53 Mostly Cloudy 41 5 25 -3.9 53 53 ENE 10 17 30.32 1027 10 16 0.00 0.00
9:53 am 09:53 Mostly Cloudy 45 7.2 24 -4.4 44 44 E 14 22 30.32 1027 10 16 0.00 0.00
10:53 am 10:53 Cloudy 48 8.9 23 -5 37 37 NE 15 24 30.31 1026 10 16 0.00 0.00
11:53 am 11:53 Cloudy 51 10.6 24 -4.4 35 35 NE 14 22 30.28 1026 10 16 0.00 0.00
12:53 pm 12:53 Cloudy 52 11.1 23 -5 32 32 ENE 14 22 30.29 1026 10 16 0.00 0.00
1:53 pm 13:53 Cloudy 53 11.7 23 -5 31 31 NE 16 26 30.28 1026 10 16 0.00 0.00
2:53 pm 14:53 Cloudy 53 11.7 23 -5 31 31 NE 12 19 30.31 1026 10 16 0.00 0.00
3:53 pm 15:53 Cloudy 54 12.2 23 -5 30 30 NNE 13 20 30.29 1026 10 16 0.00 0.00
4:38 pm 16:38 Cloudy 55 12.8 23 -5 29 29 NE 13 20 30.21 1023 10 16 0.00 0.00
4:53 pm 16:53 Cloudy 55 12.8 22 -5.6 28 28 NE 17 28 30.23 1024 10 16 0.00 0.00
5:40 pm 17:40 Cloudy 55 13 23 -5 28 28 NE 17 28 30.15 1021 10 16 0.00 0.00
5:53 pm 17:53 Cloudy 55 12.8 21 -6.1 26 26 NE 20 31 30.18 1022 10 16 0.00 0.00
6:40 pm 18:40 Cloudy 54 12.2 21 -6.1 28 28 ENE 20 31 30.09 1019 10 16 0.00 0.00
6:53 pm 18:53 Cloudy 54 12.2 21 -6.1 28 28 NE 22 35 30.12 1020 10 16 0.00 0.00
7:48 pm 19:48 Cloudy 54 12 21 -6 28 28 ENE 15 24 30.18 1022 10 16 0.00 0.00
7:53 pm 19:53 Cloudy 54 12.2 22 -5.6 29 29 NE 10 17 30.19 1022 10 16 0.00 0.00
8:53 pm 20:53 Cloudy 52 11.1 23 -5 32 32 NE 12 19 30.19 1023 10 16 0.00 0.00
9:53 pm 21:53 Cloudy 51 10.6 23 -5 33 33 NE 17 28 30.21 1023 10 16 0.00 0.00
10:53 pm 22:53 Cloudy 50 10 24 -4.4 36 36 NE 14 22 30.21 1023 10 16 0.00 0.00
11:53 pm 23:53 Mostly Cloudy 48 8.9 25 -3.9 41 41 ENE 15 24 30.19 1022 10 16 0.00 0.00

Powered by AerisWeather